TimeEST,TemperatureF,Dew PointF,Humidity,Sea Level PressureIn,VisibilityMPH,Wind Direction,Wind SpeedMPH,Gust SpeedMPH,PrecipitationIn,Events,Conditions,WindDirDegrees,DateUTC
12:15 AM,42.8,37.4,81,29.98,8.0,WNW,4.6,-,N/A,,Overcast,290,2013-01-17 05:15:00
12:35 AM,42.8,39.2,87,29.98,9.0,West,5.8,-,N/A,,Overcast,280,2013-01-17 05:35:00
12:55 AM,42.8,39.2,87,29.99,9.0,WNW,4.6,-,N/A,,Overcast,300,2013-01-17 05:55:00
1:15 AM,42.8,39.2,87,29.98,10.0,WNW,3.5,-,N/A,,Overcast,290,2013-01-17 06:15:00
1:35 AM,42.8,39.2,87,29.99,10.0,Calm,Calm,-,N/A,,Overcast,0,2013-01-17 06:35:00
1:55 AM,42.8,39.2,87,29.99,10.0,WNW,3.5,-,N/A,,Overcast,300,2013-01-17 06:55:00
2:15 AM,42.8,39.2,87,30.00,10.0,West,3.5,-,N/A,,Overcast,260,2013-01-17 07:15:00
2:35 AM,42.8,39.2,87,30.01,10.0,West,4.6,-,N/A,,Overcast,270,2013-01-17 07:35:00
2:55 AM,42.8,39.2,87,29.99,10.0,West,4.6,-,0.01,,Overcast,270,2013-01-17 07:55:00
3:15 AM,42.8,39.2,87,30.01,10.0,West,4.6,-,N/A,,Overcast,270,2013-01-17 08:15:00
3:35 AM,42.8,39.2,87,30.00,10.0,WSW,4.6,-,N/A,,Overcast,250,2013-01-17 08:35:00
4:35 AM,42.8,39.2,87,29.99,8.0,WSW,5.8,-,0.01,,Overcast,240,2013-01-17 09:35:00
4:55 AM,42.8,39.2,87,30.00,8.0,West,5.8,-,0.01,,Overcast,260,2013-01-17 09:55:00
5:15 AM,42.8,39.2,87,30.01,8.0,WSW,5.8,-,N/A,,Overcast,240,2013-01-17 10:15:00
5:35 AM,42.8,39.2,87,30.00,8.0,West,4.6,-,N/A,,Overcast,260,2013-01-17 10:35:00
5:55 AM,42.8,39.2,87,30.03,8.0,WSW,6.9,-,N/A,,Overcast,240,2013-01-17 10:55:00
6:15 AM,42.8,39.2,87,30.03,10.0,WSW,5.8,-,0.01,,Overcast,250,2013-01-17 11:15:00
6:35 AM,42.8,39.2,87,30.05,8.0,WSW,8.1,-,0.02,,Overcast,240,2013-01-17 11:35:00
6:55 AM,42.8,39.2,87,30.05,8.0,SW,6.9,-,0.02,,Overcast,230,2013-01-17 11:55:00
7:15 AM,42.8,39.2,87,30.05,8.0,SW,4.6,-,0.02,,Overcast,230,2013-01-17 12:15:00
7:35 AM,42.8,39.2,87,30.06,5.0,WSW,4.6,-,0.03,,Mostly Cloudy,240,2013-01-17 12:35:00
7:55 AM,42.8,39.2,87,30.06,2.0,WSW,3.5,-,0.03,,Overcast,240,2013-01-17 12:55:00
8:15 AM,42.8,39.2,87,30.07,2.0,WSW,4.6,-,0.01,,Overcast,250,2013-01-17 13:15:00
8:35 AM,42.8,39.2,87,30.08,1.8,WSW,4.6,-,0.01,,Overcast,240,2013-01-17 13:35:00
8:55 AM,42.8,39.2,87,30.10,9.0,West,4.6,-,0.02,,Mostly Cloudy,260,2013-01-17 13:55:00
9:15 AM,42.8,39.2,87,30.10,7.0,Calm,Calm,-,0.02,,Mostly Cloudy,0,2013-01-17 14:15:00
9:35 AM,42.8,37.4,81,30.09,10.0,WSW,3.5,-,0.04,,Overcast,240,2013-01-17 14:35:00
9:55 AM,42.8,37.4,81,30.12,10.0,WSW,3.5,-,0.04,,Overcast,250,2013-01-17 14:55:00
10:15 AM,42.8,37.4,81,30.12,10.0,Calm,Calm,-,N/A,,Mostly Cloudy,0,2013-01-17 15:15:00
10:35 AM,42.8,37.4,81,30.12,10.0,Calm,Calm,-,0.02,,Scattered Clouds,0,2013-01-17 15:35:00
10:55 AM,42.8,37.4,81,30.11,10.0,Calm,Calm,-,0.02,,Mostly Cloudy,0,2013-01-17 15:55:00
11:15 AM,42.8,37.4,81,30.10,10.0,WNW,4.6,-,N/A,,Mostly Cloudy,300,2013-01-17 16:15:00
11:35 AM,42.8,33.8,70,30.09,10.0,NNW,3.5,-,N/A,,Mostly Cloudy,330,2013-01-17 16:35:00
11:55 AM,41.0,33.8,76,30.09,10.0,NW,3.5,-,N/A,,Scattered Clouds,310,2013-01-17 16:55:00
12:15 PM,41.0,33.8,76,30.09,10.0,NW,3.5,-,N/A,,Scattered Clouds,310,2013-01-17 17:15:00
12:35 PM,42.8,33.8,70,30.09,10.0,NW,5.8,-,N/A,,Scattered Clouds,310,2013-01-17 17:35:00
12:55 PM,41.0,33.8,76,30.07,10.0,NNW,6.9,-,N/A,,Mostly Cloudy,340,2013-01-17 17:55:00
1:15 PM,41.0,33.8,76,30.06,10.0,North,4.6,-,N/A,,Mostly Cloudy,350,2013-01-17 18:15:00
1:35 PM,41.0,32.0,70,30.06,10.0,North,6.9,-,N/A,,Mostly Cloudy,360,2013-01-17 18:35:00
1:55 PM,41.0,30.2,65,30.07,10.0,North,5.8,-,N/A,,Mostly Cloudy,350,2013-01-17 18:55:00
2:15 PM,41.0,30.2,65,30.07,10.0,North,5.8,-,N/A,,Overcast,360,2013-01-17 19:15:00
2:35 PM,39.2,30.2,70,30.06,10.0,Calm,Calm,-,N/A,,Mostly Cloudy,0,2013-01-17 19:35:00
2:55 PM,39.2,33.8,81,30.09,10.0,WSW,3.5,-,0.01,,Overcast,240,2013-01-17 19:55:00
3:15 PM,39.2,33.8,81,30.09,10.0,SSE,3.5,-,N/A,,Overcast,160,2013-01-17 20:15:00
3:35 PM,39.2,33.8,81,30.08,10.0,SE,3.5,-,N/A,,Mostly Cloudy,140,2013-01-17 20:35:00
3:55 PM,39.2,33.8,81,30.09,10.0,SSE,3.5,-,N/A,,Mostly Cloudy,150,2013-01-17 20:55:00
4:15 PM,39.2,33.8,81,30.10,10.0,Calm,Calm,-,N/A,,Mostly Cloudy,0,2013-01-17 21:15:00
4:35 PM,39.2,33.8,81,30.10,10.0,Calm,Calm,-,N/A,,Mostly Cloudy,0,2013-01-17 21:35:00
4:55 PM,39.2,33.8,81,30.10,10.0,Calm,Calm,-,N/A,,Overcast,0,2013-01-17 21:55:00
5:15 PM,39.2,35.6,87,30.10,10.0,Calm,Calm,-,N/A,,Overcast,0,2013-01-17 22:15:00
5:35 PM,39.2,35.6,87,30.08,10.0,Calm,Calm,-,N/A,,Overcast,0,2013-01-17 22:35:00
5:55 PM,39.2,35.6,87,30.09,10.0,Calm,Calm,-,N/A,,Overcast,0,2013-01-17 22:55:00
6:15 PM,39.2,35.6,87,30.09,9.0,Calm,Calm,-,N/A,,Overcast,0,2013-01-17 23:15:00
6:35 PM,39.2,35.6,87,30.09,9.0,South,3.5,-,N/A,,Overcast,170,2013-01-17 23:35:00
6:55 PM,39.2,35.6,87,30.09,7.0,Calm,Calm,-,N/A,,Overcast,0,2013-01-17 23:55:00
7:15 PM,37.4,35.6,93,30.09,10.0,Calm,Calm,-,N/A,,Overcast,0,2013-01-18 00:15:00
7:35 PM,37.4,33.8,87,30.11,10.0,WNW,4.6,-,N/A,,Overcast,290,2013-01-18 00:35:00
7:55 PM,37.4,33.8,87,30.09,10.0,North,4.6,-,N/A,,Mostly Cloudy,350,2013-01-18 00:55:00
8:15 PM,39.2,33.8,81,30.09,10.0,NW,3.5,-,N/A,,Overcast,320,2013-01-18 01:15:00
8:35 PM,39.2,32.0,75,30.08,10.0,NNW,3.5,-,N/A,,Mostly Cloudy,340,2013-01-18 01:35:00
8:55 PM,39.2,30.2,70,30.08,10.0,NW,4.6,-,N/A,,Overcast,310,2013-01-18 01:55:00
9:15 PM,39.2,30.2,70,30.04,10.0,NNW,4.6,-,N/A,,Overcast,340,2013-01-18 02:15:00
9:55 PM,39.2,30.2,70,30.03,10.0,NE,3.5,-,N/A,,Overcast,40,2013-01-18 02:55:00
10:15 PM,39.2,30.2,70,30.04,10.0,NNW,3.5,-,N/A,,Overcast,330,2013-01-18 03:15:00
10:35 PM,37.4,30.2,75,30.04,10.0,North,11.5,-,N/A,,Overcast,350,2013-01-18 03:35:00
10:55 PM,37.4,30.2,75,30.06,6.0,NNW,5.8,-,0.02,,Overcast,330,2013-01-18 03:55:00
11:15 PM,35.6,30.2,81,30.05,5.0,North,5.8,-,0.02,,Overcast,360,2013-01-18 04:15:00
11:35 PM,35.6,30.2,81,30.04,5.0,North,5.8,-,0.05,,Overcast,360,2013-01-18 04:35:00
11:55 PM,33.8,30.2,87,30.02,5.0,Calm,Calm,-,0.07,,Overcast,0,2013-01-18 04:55:00